Location: Palomar Mountain Lodge
(33.3110°N, 116.8495°W)
Time: 10:57:06
(UTC-07:00)

Cosmos 1943 - Pass Details

Date: 14 June 2018
Orbit: 832 x 851 km, 71.0° (Epoch: 18 June)

Event Time Altitude Azimuth Distance (km) Brightness Sun altitude
Rises 22:28:09 0° 335° (NNW) 3,406 7.7 -24.3°
Reaches altitude 10° 22:30:37 10° 332° (NNW) 2,465 6.7 -24.6°
Maximum altitude 22:36:12 63° 253° (WSW) 932 3.4 -25.3°
Enters shadow 22:37:13 53° 206° (SSW) 1,020 3.4 -25.4°
